Location: Prague
(50.0830°N, 14.4670°E)
Time: 09:06:07
(UTC+02:00)

TIGRISAT - Visible Passes

Search period start: 01 April 2023 00:00
Search period end: 11 April 2023 00:00
Orbit: 601 x 681 km, 97.7° (Epoch: 31 March)

Date Brightness Start Highest point End Pass type
(mag) Time Alt. Az. Time Alt. Az. Time Alt. Az.
01 Apr ? 05:06:10 10° SE 05:10:20 41° ENE 05:14:38 10° N visible
01 Apr ? 20:05:03 10° N 20:08:50 25° WNW 20:12:37 10° WSW visible
02 Apr ? 03:57:11 10° ENE 03:58:30 11° NE 03:59:50 10° NE visible
02 Apr ? 05:29:46 10° SSE 05:34:11 67° ENE 05:38:45 10° N visible
02 Apr ? 20:29:35 10° NNW 20:32:31 17° WNW 20:35:25 10° W visible
03 Apr ? 04:19:11 10° E 04:22:06 17° ENE 04:25:03 10° NNE visible
03 Apr ? 05:53:39 10° S 05:58:07 74° WSW 06:02:43 10° NNW visible
03 Apr ? 20:54:54 10° NW 20:56:06 11° NW 20:57:17 10° WNW visible
04 Apr ? 04:42:01 10° ESE 04:45:46 26° ENE 04:49:34 10° N visible
05 Apr ? 05:05:17 10° SE 05:09:30 41° ENE 05:13:50 10° N visible
06 Apr ? 03:56:14 10° ENE 03:57:39 11° NE 03:59:03 10° NE visible
06 Apr ? 05:28:51 10° SSE 05:33:19 67° ENE 05:37:55 10° N visible
06 Apr ? 20:28:43 10° NNW 20:31:39 17° WNW 20:34:32 10° W visible
07 Apr ? 04:18:15 10° E 04:21:13 17° ENE 04:24:12 10° NNE visible
07 Apr ? 20:54:00 10° NW 20:55:12 11° NW 20:56:24 10° WNW visible
08 Apr ? 04:41:04 10° ESE 04:44:51 26° ENE 04:48:41 10° N visible
09 Apr ? 05:04:18 10° SE 05:08:33 41° ENE 05:12:54 10° N visible
10 Apr ? 03:55:12 10° ENE 03:56:40 11° NE 03:58:08 10° NE visible
10 Apr ? 05:27:49 10° SSE 05:32:20 67° ENE 05:36:58 10° N visible
10 Apr ? 20:27:44 10° NNW 20:30:39 17° WNW 20:33:32 10° W visible
